sat.trackr.live / text

‹ back to catalog

O3B MPOWER F6

NORAD 58347 · 2023-175B

PAYLOAD ACTIVE UNKNOWN

§ Identity

Operator
Country
O3B
Launch date
2023-11-12
Launch site
AFETR
Launch vehicle
Mass (kg)
RCS (m²)

Purposes: comms

External: N2YO · Heavens-Above · Gunter

§ Orbital elements

Epoch: 2026-05-24T19:43:37.711200Z

Period
287.93 min
Inclination
0.0521°
Eccentricity
0.0004582
Mean motion
5.00116099 rev/d
Perigee alt
8,059.3 km
Apogee alt
8,072.5 km
Semi-major
14,444.0 km
B*
0.0000e+0
RAAN
5.4627°
Arg perigee
51.3774°
Mean anomaly
303.2031°
Rev number
4,718

§ Raw data

O3B MPOWER F61 58347U 23175B   26144.82196425 -.00000024  00000+0  00000+0 0  99942 58347   0.0521   5.4627 0004582  51.3774 303.2031  5.00116099 47180

JSON: /api/v1/satellites/58347 · /tle

For live sub-satellite position, see the globe view (requires WebGL).

§ Visibility from observer

Set your observer location to see the next 7 days of passes ≥ 10°. The values pass through the URL so the page stays shareable.

No JS? Fill the form by hand. The geolocation button needs JavaScript.